Data supplied by UK-AIR on 5/4/2008
All Data GMT hour ending 
Status: R =Ratified P=Provisional,P*=As supplied
,,London Sutton,,,,,,,,,,,,,,,,,,,,,,,
Date,time,"Nitric oxide",status,unit,"Nitrogen dioxide",status,unit,"Nitrogen oxides as nitrogen dioxide",status,unit,"Ozone",status,unit
 
01-01-2001,01:00,,,,,,,,,,46,R,ugm-3
01-01-2001,02:00,,,,,,,,,,48,R,ugm-3
01-01-2001,03:00,,,,,,,,,,46,R,ugm-3
01-01-2001,04:00,,,,,,,,,,50,R,ugm-3
01-01-2001,05:00,,,,,,,,,,50,R,ugm-3
01-01-2001,06:00,,,,,,,,,,50,R,ugm-3
01-01-2001,07:00,,,,,,,,,,48,R,ugm-3
01-01-2001,08:00,,,,,,,,,,48,R,ugm-3
01-01-2001,09:00,,,,,,,,,,54,R,ugm-3
01-01-2001,10:00,,,,,,,,,,62,R,ugm-3
01-01-2001,11:00,,,,,,,,,,60,R,ugm-3
01-01-2001,12:00,,,,,,,,,,62,R,ugm-3
01-01-2001,13:00,,,,,,,,,,52,R,ugm-3
01-01-2001,14:00,,,,,,,,,,52,R,ugm-3
01-01-2001,15:00,,,,,,,,,,54,R,ugm-3
01-01-2001,16:00,,,,,,,,,,52,R,ugm-3
01-01-2001,17:00,,,,,,,,,,50,R,ugm-3
01-01-2001,18:00,,,,,,,,,,48,R,ugm-3
01-01-2001,19:00,,,,,,,,,,44,R,ugm-3
01-01-2001,20:00,,,,,,,,,,52,R,ugm-3
01-01-2001,21:00,,,,,,,,,,56,R,ugm-3
01-01-2001,22:00,,,,,,,,,,62,R,ugm-3
01-01-2001,23:00,,,,,,,,,,60,R,ugm-3
01-01-2001,24:00,,,,,,,,,,60,R,ugm-3
02-01-2001,01:00,,,,,,,,,,66,R,ugm-3
02-01-2001,02:00,,,,,,,,,,66,R,ugm-3
02-01-2001,03:00,,,,,,,,,,68,R,ugm-3
02-01-2001,04:00,,,,,,,,,,66,R,ugm-3
02-01-2001,05:00,,,,,,,,,,72,R,ugm-3
02-01-2001,06:00,,,,,,,,,,70,R,ugm-3
02-01-2001,07:00,,,,,,,,,,62,R,ugm-3
02-01-2001,08:00,,,,,,,,,,60,R,ugm-3
02-01-2001,09:00,,,,,,,,,,54,R,ugm-3
02-01-2001,10:00,,,,,,,,,,54,R,ugm-3
02-01-2001,11:00,,,,,,,,,,56,R,ugm-3
02-01-2001,12:00,,,,,,,,,,56,R,ugm-3
02-01-2001,13:00,,,,,,,,,,60,R,ugm-3
02-01-2001,14:00,,,,,,,,,,62,R,ugm-3
02-01-2001,15:00,,,,,,,,,,58,R,ugm-3
02-01-2001,16:00,,,,,,,,,,54,R,ugm-3
02-01-2001,17:00,,,,,,,,,,54,R,ugm-3
02-01-2001,18:00,,,,,,,,,,48,R,ugm-3
02-01-2001,19:00,,,,,,,,,,48,R,ugm-3
02-01-2001,20:00,,,,,,,,,,50,R,ugm-3
02-01-2001,21:00,,,,,,,,,,48,R,ugm-3
02-01-2001,22:00,,,,,,,,,,52,R,ugm-3
02-01-2001,23:00,,,,,,,,,,48,R,ugm-3
02-01-2001,24:00,,,,,,,,,,44,R,ugm-3
03-01-2001,01:00,,,,,,,,,,48,R,ugm-3
03-01-2001,02:00,,,,,,,,,,50,R,ugm-3
03-01-2001,03:00,,,,,,,,,,56,R,ugm-3
03-01-2001,04:00,,,,,,,,,,52,R,ugm-3
03-01-2001,05:00,,,,,,,,,,54,R,ugm-3
03-01-2001,06:00,,,,,,,,,,50,R,ugm-3
03-01-2001,07:00,,,,,,,,,,38,R,ugm-3
03-01-2001,08:00,,,,,,,,,,8,R,ugm-3
03-01-2001,09:00,,,,,,,,,,4,R,ugm-3
03-01-2001,10:00,,,,,,,,,,12,R,ugm-3
03-01-2001,11:00,,,,,,,,,,26,R,ugm-3
03-01-2001,12:00,,,,,,,,,,30,R,ugm-3
03-01-2001,13:00,,,,,,,,,,46,R,ugm-3
03-01-2001,14:00,,,,,,,,,,44,R,ugm-3
03-01-2001,15:00,,,,,,,,,,38,R,ugm-3
03-01-2001,16:00,,,,,,,,,,44,R,ugm-3
03-01-2001,17:00,,,,,,,,,,46,R,ugm-3
03-01-2001,18:00,,,,,,,,,,42,R,ugm-3
03-01-2001,19:00,,,,,,,,,,40,R,ugm-3
03-01-2001,20:00,,,,,,,,,,44,R,ugm-3
03-01-2001,21:00,,,,,,,,,,44,R,ugm-3
03-01-2001,22:00,,,,,,,,,,56,R,ugm-3
03-01-2001,23:00,,,,,,,,,,58,R,ugm-3
03-01-2001,24:00,,,,,,,,,,58,R,ugm-3
04-01-2001,01:00,,,,,,,,,,60,R,ugm-3
04-01-2001,02:00,,,,,,,,,,60,R,ugm-3
04-01-2001,03:00,,,,,,,,,,58,R,ugm-3
04-01-2001,04:00,,,,,,,,,,52,R,ugm-3
04-01-2001,05:00,,,,,,,,,,48,R,ugm-3
04-01-2001,06:00,,,,,,,,,,46,R,ugm-3
04-01-2001,07:00,,,,,,,,,,34,R,ugm-3
04-01-2001,08:00,,,,,,,,,,30,R,ugm-3
04-01-2001,09:00,,,,,,,,,,28,R,ugm-3
04-01-2001,10:00,,,,,,,,,,36,R,ugm-3
04-01-2001,11:00,,,,,,,,,,30,R,ugm-3
04-01-2001,12:00,,,,,,,,,,36,R,ugm-3
04-01-2001,13:00,,,,,,,,,,42,R,ugm-3
04-01-2001,14:00,,,,,,,,,,48,R,ugm-3
04-01-2001,15:00,,,,,,,,,,,,
04-01-2001,16:00,,,,,,,,,,42,R,ugm-3
04-01-2001,17:00,,,,,,,,,,38,R,ugm-3
04-01-2001,18:00,,,,,,,,,,28,R,ugm-3
04-01-2001,19:00,,,,,,,,,,34,R,ugm-3
04-01-2001,20:00,,,,,,,,,,38,R,ugm-3
04-01-2001,21:00,,,,,,,,,,36,R,ugm-3
04-01-2001,22:00,,,,,,,,,,36,R,ugm-3
04-01-2001,23:00,,,,,,,,,,28,R,ugm-3
04-01-2001,24:00,,,,,,,,,,34,R,ugm-3
05-01-2001,01:00,,,,,,,,,,52,R,ugm-3
05-01-2001,02:00,,,,,,,,,,58,R,ugm-3
05-01-2001,03:00,,,,,,,,,,64,R,ugm-3
05-01-2001,04:00,,,,,,,,,,64,R,ugm-3
05-01-2001,05:00,,,,,,,,,,58,R,ugm-3
05-01-2001,06:00,,,,,,,,,,38,R,ugm-3
05-01-2001,07:00,,,,,,,,,,20,R,ugm-3
05-01-2001,08:00,,,,,,,,,,2,R,ugm-3
05-01-2001,09:00,,,,,,,,,,6,R,ugm-3
05-01-2001,10:00,,,,,,,,,,10,R,ugm-3
05-01-2001,11:00,,,,,,,,,,6,R,ugm-3
05-01-2001,12:00,,,,,,,,,,20,R,ugm-3
05-01-2001,13:00,,,,,,,,,,24,R,ugm-3
05-01-2001,14:00,,,,,,,,,,22,R,ugm-3
05-01-2001,15:00,,,,,,,,,,6,R,ugm-3
05-01-2001,16:00,,,,,,,,,,6,R,ugm-3
05-01-2001,17:00,,,,,,,,,,2,R,ugm-3
05-01-2001,18:00,,,,,,,,,,0,R,ugm-3
05-01-2001,19:00,,,,,,,,,,0,R,ugm-3
05-01-2001,20:00,,,,,,,,,,0,R,ugm-3
05-01-2001,21:00,,,,,,,,,,0,R,ugm-3
05-01-2001,22:00,,,,,,,,,,0,R,ugm-3
05-01-2001,23:00,,,,,,,,,,0,R,ugm-3
05-01-2001,24:00,,,,,,,,,,0,R,ugm-3
06-01-2001,01:00,,,,,,,,,,0,R,ugm-3
06-01-2001,02:00,,,,,,,,,,0,R,ugm-3
06-01-2001,03:00,,,,,,,,,,4,R,ugm-3
06-01-2001,04:00,,,,,,,,,,8,R,ugm-3
06-01-2001,05:00,,,,,,,,,,10,R,ugm-3
06-01-2001,06:00,,,,,,,,,,14,R,ugm-3
06-01-2001,07:00,,,,,,,,,,2,R,ugm-3
06-01-2001,08:00,,,,,,,,,,2,R,ugm-3
06-01-2001,09:00,,,,,,,,,,14,R,ugm-3
06-01-2001,10:00,,,,,,,,,,28,R,ugm-3
06-01-2001,11:00,,,,,,,,,,36,R,ugm-3
06-01-2001,12:00,,,,,,,,,,42,R,ugm-3
06-01-2001,13:00,,,,,,,,,,38,R,ugm-3
06-01-2001,14:00,,,,,,,,,,38,R,ugm-3
06-01-2001,15:00,,,,,,,,,,22,R,ugm-3
06-01-2001,16:00,,,,,,,,,,20,R,ugm-3
06-01-2001,17:00,,,,,,,,,,0,R,ugm-3
06-01-2001,18:00,,,,,,,,,,0,R,ugm-3
06-01-2001,19:00,,,,,,,,,,0,R,ugm-3
06-01-2001,20:00,,,,,,,,,,6,R,ugm-3
06-01-2001,21:00,,,,,,,,,,10,R,ugm-3
06-01-2001,22:00,,,,,,,,,,16,R,ugm-3
06-01-2001,23:00,,,,,,,,,,8,R,ugm-3
06-01-2001,24:00,,,,,,,,,,12,R,ugm-3
07-01-2001,01:00,,,,,,,,,,24,R,ugm-3
07-01-2001,02:00,,,,,,,,,,28,R,ugm-3
07-01-2001,03:00,,,,,,,,,,38,R,ugm-3
07-01-2001,04:00,,,,,,,,,,42,R,ugm-3
07-01-2001,05:00,,,,,,,,,,46,R,ugm-3
07-01-2001,06:00,,,,,,,,,,46,R,ugm-3
07-01-2001,07:00,,,,,,,,,,36,R,ugm-3
07-01-2001,08:00,,,,,,,,,,28,R,ugm-3
07-01-2001,09:00,,,,,,,,,,30,R,ugm-3
07-01-2001,10:00,,,,,,,,,,30,R,ugm-3
07-01-2001,11:00,,,,,,,,,,28,R,ugm-3
07-01-2001,12:00,,,,,,,,,,30,R,ugm-3
07-01-2001,13:00,,,,,,,,,,32,R,ugm-3
07-01-2001,14:00,,,,,,,,,,34,R,ugm-3
07-01-2001,15:00,,,,,,,,,,30,R,ugm-3
07-01-2001,16:00,,,,,,,,,,28,R,ugm-3
07-01-2001,17:00,,,,,,,,,,12,R,ugm-3
07-01-2001,18:00,,,,,,,,,,10,R,ugm-3
07-01-2001,19:00,,,,,,,,,,24,R,ugm-3
07-01-2001,20:00,,,,,,,,,,34,R,ugm-3
07-01-2001,21:00,,,,,,,,,,36,R,ugm-3
07-01-2001,22:00,,,,,,,,,,38,R,ugm-3
07-01-2001,23:00,,,,,,,,,,44,R,ugm-3
07-01-2001,24:00,,,,,,,,,,52,R,ugm-3
08-01-2001,01:00,,,,,,,,,,58,R,ugm-3
08-01-2001,02:00,,,,,,,,,,56,R,ugm-3
08-01-2001,03:00,,,,,,,,,,58,R,ugm-3
08-01-2001,04:00,,,,,,,,,,56,R,ugm-3
08-01-2001,05:00,,,,,,,,,,52,R,ugm-3
08-01-2001,06:00,,,,,,,,,,44,R,ugm-3
08-01-2001,07:00,,,,,,,,,,32,R,ugm-3
08-01-2001,08:00,,,,,,,,,,18,R,ugm-3
08-01-2001,09:00,,,,,,,,,,6,R,ugm-3
08-01-2001,10:00,,,,,,,,,,4,R,ugm-3
08-01-2001,11:00,,,,,,,,,,10,R,ugm-3
08-01-2001,12:00,,,,,,,,,,10,R,ugm-3
08-01-2001,13:00,,,,,,,,,,8,R,ugm-3
08-01-2001,14:00,,,,,,,,,,8,R,ugm-3
08-01-2001,15:00,,,,,,,,,,6,R,ugm-3
08-01-2001,16:00,,,,,,,,,,2,R,ugm-3
08-01-2001,17:00,,,,,,,,,,0,R,ugm-3
08-01-2001,18:00,,,,,,,,,,0,R,ugm-3
08-01-2001,19:00,,,,,,,,,,0,R,ugm-3
08-01-2001,20:00,,,,,,,,,,6,R,ugm-3
08-01-2001,21:00,,,,,,,,,,0,R,ugm-3
08-01-2001,22:00,,,,,,,,,,4,R,ugm-3
08-01-2001,23:00,,,,,,,,,,6,R,ugm-3
08-01-2001,24:00,,,,,,,,,,4,R,ugm-3
09-01-2001,01:00,,,,,,,,,,8,R,ugm-3
09-01-2001,02:00,,,,,,,,,,10,R,ugm-3
09-01-2001,03:00,,,,,,,,,,10,R,ugm-3
09-01-2001,04:00,,,,,,,,,,4,R,ugm-3
09-01-2001,05:00,,,,,,,,,,0,R,ugm-3
09-01-2001,06:00,,,,,,,,,,0,R,ugm-3
09-01-2001,07:00,,,,,,,,,,0,R,ugm-3
09-01-2001,08:00,,,,,,,,,,0,R,ugm-3
09-01-2001,09:00,,,,,,,,,,0,R,ugm-3
09-01-2001,10:00,,,,,,,,,,0,R,ugm-3
09-01-2001,11:00,,,,,,,,,,0,R,ugm-3
09-01-2001,12:00,,,,,,,,,,2,R,ugm-3
09-01-2001,13:00,,,,,,,,,,4,R,ugm-3
09-01-2001,14:00,,,,,,,,,,2,R,ugm-3
09-01-2001,15:00,,,,,,,,,,0,R,ugm-3
09-01-2001,16:00,,,,,,,,,,0,R,ugm-3
09-01-2001,17:00,,,,,,,,,,0,R,ugm-3
09-01-2001,18:00,,,,,,,,,,0,R,ugm-3
09-01-2001,19:00,,,,,,,,,,0,R,ugm-3
09-01-2001,20:00,,,,,,,,,,0,R,ugm-3
09-01-2001,21:00,,,,,,,,,,0,R,ugm-3
09-01-2001,22:00,,,,,,,,,,0,R,ugm-3
09-01-2001,23:00,,,,,,,,,,0,R,ugm-3
09-01-2001,24:00,,,,,,,,,,0,R,ugm-3
10-01-2001,01:00,,,,,,,,,,4,R,ugm-3
10-01-2001,02:00,,,,,,,,,,16,R,ugm-3
10-01-2001,03:00,,,,,,,,,,14,R,ugm-3
10-01-2001,04:00,,,,,,,,,,2,R,ugm-3
10-01-2001,05:00,,,,,,,,,,4,R,ugm-3
10-01-2001,06:00,,,,,,,,,,4,R,ugm-3
10-01-2001,07:00,,,,,,,,,,0,R,ugm-3
10-01-2001,08:00,,,,,,,,,,0,R,ugm-3
10-01-2001,09:00,,,,,,,,,,0,R,ugm-3
10-01-2001,10:00,,,,,,,,,,2,R,ugm-3
10-01-2001,11:00,,,,,,,,,,4,R,ugm-3
10-01-2001,12:00,,,,,,,,,,6,R,ugm-3
10-01-2001,13:00,,,,,,,,,,8,R,ugm-3
10-01-2001,14:00,,,,,,,,,,6,R,ugm-3
10-01-2001,15:00,,,,,,,,,,8,R,ugm-3
10-01-2001,16:00,,,,,,,,,,8,R,ugm-3
10-01-2001,17:00,,,,,,,,,,6,R,ugm-3
10-01-2001,18:00,,,,,,,,,,4,R,ugm-3
10-01-2001,19:00,,,,,,,,,,8,R,ugm-3
10-01-2001,20:00,,,,,,,,,,12,R,ugm-3
10-01-2001,21:00,,,,,,,,,,20,R,ugm-3
10-01-2001,22:00,,,,,,,,,,26,R,ugm-3
10-01-2001,23:00,,,,,,,,,,30,R,ugm-3
10-01-2001,24:00,,,,,,,,,,36,R,ugm-3
11-01-2001,01:00,,,,,,,,,,40,R,ugm-3
11-01-2001,02:00,,,,,,,,,,38,R,ugm-3
11-01-2001,03:00,,,,,,,,,,44,R,ugm-3
11-01-2001,04:00,,,,,,,,,,44,R,ugm-3
11-01-2001,05:00,,,,,,,,,,38,R,ugm-3
11-01-2001,06:00,,,,,,,,,,34,R,ugm-3
11-01-2001,07:00,,,,,,,,,,40,R,ugm-3
11-01-2001,08:00,,,,,,,,,,30,R,ugm-3
11-01-2001,09:00,,,,,,,,,,22,R,ugm-3
11-01-2001,10:00,,,,,,,,,,28,R,ugm-3
11-01-2001,11:00,,,,,,,,,,36,R,ugm-3
11-01-2001,12:00,,,,,,,,,,36,R,ugm-3
11-01-2001,13:00,,,,,,,,,,32,R,ugm-3
11-01-2001,14:00,,,,,,,,,,22,R,ugm-3
11-01-2001,15:00,,,,,,,,,,26,R,ugm-3
11-01-2001,16:00,,,,,,,,,,24,R,ugm-3
11-01-2001,17:00,,,,,,,,,,20,R,ugm-3
11-01-2001,18:00,,,,,,,,,,20,R,ugm-3
11-01-2001,19:00,,,,,,,,,,24,R,ugm-3
11-01-2001,20:00,,,,,,,,,,22,R,ugm-3
11-01-2001,21:00,,,,,,,,,,16,R,ugm-3
11-01-2001,22:00,,,,,,,,,,16,R,ugm-3
11-01-2001,23:00,,,,,,,,,,6,R,ugm-3
11-01-2001,24:00,,,,,,,,,,10,R,ugm-3
12-01-2001,01:00,,,,,,,,,,8,R,ugm-3
12-01-2001,02:00,,,,,,,,,,12,R,ugm-3
12-01-2001,03:00,,,,,,,,,,32,R,ugm-3
12-01-2001,04:00,,,,,,,,,,40,R,ugm-3
12-01-2001,05:00,,,,,,,,,,32,R,ugm-3
12-01-2001,06:00,,,,,,,,,,26,R,ugm-3
12-01-2001,07:00,,,,,,,,,,26,R,ugm-3
12-01-2001,08:00,,,,,,,,,,32,R,ugm-3
12-01-2001,09:00,,,,,,,,,,30,R,ugm-3
12-01-2001,10:00,,,,,,,,,,36,R,ugm-3
12-01-2001,11:00,,,,,,,,,,46,R,ugm-3
12-01-2001,12:00,,,,,,,,,,50,R,ugm-3
12-01-2001,13:00,,,,,,,,,,52,R,ugm-3
12-01-2001,14:00,,,,,,,,,,52,R,ugm-3
12-01-2001,15:00,,,,,,,,,,44,R,ugm-3
12-01-2001,16:00,,,,,,,,,,18,R,ugm-3
12-01-2001,17:00,,,,,,,,,,18,R,ugm-3
12-01-2001,18:00,,,,,,,,,,16,R,ugm-3
12-01-2001,19:00,,,,,,,,,,24,R,ugm-3
12-01-2001,20:00,,,,,,,,,,32,R,ugm-3
12-01-2001,21:00,,,,,,,,,,36,R,ugm-3
12-01-2001,22:00,,,,,,,,,,36,R,ugm-3
12-01-2001,23:00,,,,,,,,,,32,R,ugm-3
12-01-2001,24:00,,,,,,,,,,32,R,ugm-3
13-01-2001,01:00,,,,,,,,,,38,R,ugm-3
13-01-2001,02:00,,,,,,,,,,36,R,ugm-3
13-01-2001,03:00,,,,,,,,,,26,R,ugm-3
13-01-2001,04:00,,,,,,,,,,10,R,ugm-3
13-01-2001,05:00,,,,,,,,,,0,R,ugm-3
13-01-2001,06:00,,,,,,,,,,0,R,ugm-3
13-01-2001,07:00,,,,,,,,,,0,R,ugm-3
13-01-2001,08:00,,,,,,,,,,0,R,ugm-3
13-01-2001,09:00,,,,,,,,,,0,R,ugm-3
13-01-2001,10:00,,,,,,,,,,2,R,ugm-3
13-01-2001,11:00,,,,,,,,,,10,R,ugm-3
13-01-2001,12:00,,,,,,,,,,24,R,ugm-3
13-01-2001,13:00,,,,,,,,,,34,R,ugm-3
13-01-2001,14:00,,,,,,,,,,24,R,ugm-3
13-01-2001,15:00,,,,,,,,,,18,R,ugm-3
13-01-2001,16:00,,,,,,,,,,14,R,ugm-3
13-01-2001,17:00,,,,,,,,,,14,R,ugm-3
13-01-2001,18:00,,,,,,,,,,2,R,ugm-3
13-01-2001,19:00,,,,,,,,,,2,R,ugm-3
13-01-2001,20:00,,,,,,,,,,2,R,ugm-3
13-01-2001,21:00,,,,,,,,,,0,R,ugm-3
13-01-2001,22:00,,,,,,,,,,0,R,ugm-3
13-01-2001,23:00,,,,,,,,,,0,R,ugm-3
13-01-2001,24:00,,,,,,,,,,0,R,ugm-3
14-01-2001,01:00,,,,,,,,,,0,R,ugm-3
14-01-2001,02:00,,,,,,,,,,0,R,ugm-3
14-01-2001,03:00,,,,,,,,,,0,R,ugm-3
14-01-2001,04:00,,,,,,,,,,4,R,ugm-3
14-01-2001,05:00,,,,,,,,,,12,R,ugm-3
14-01-2001,06:00,,,,,,,,,,14,R,ugm-3
14-01-2001,07:00,,,,,,,,,,10,R,ugm-3
14-01-2001,08:00,,,,,,,,,,2,R,ugm-3
14-01-2001,09:00,,,,,,,,,,2,R,ugm-3
14-01-2001,10:00,,,,,,,,,,4,R,ugm-3
14-01-2001,11:00,,,,,,,,,,14,R,ugm-3
14-01-2001,12:00,,,,,,,,,,22,R,ugm-3
14-01-2001,13:00,,,,,,,,,,32,R,ugm-3
14-01-2001,14:00,,,,,,,,,,38,R,ugm-3
14-01-2001,15:00,,,,,,,,,,46,R,ugm-3
14-01-2001,16:00,,,,,,,,,,38,R,ugm-3
14-01-2001,17:00,,,,,,,,,,46,R,ugm-3
14-01-2001,18:00,,,,,,,,,,42,R,ugm-3
14-01-2001,19:00,,,,,,,,,,56,R,ugm-3
14-01-2001,20:00,,,,,,,,,,58,R,ugm-3
14-01-2001,21:00,,,,,,,,,,52,R,ugm-3
14-01-2001,22:00,,,,,,,,,,36,R,ugm-3
14-01-2001,23:00,,,,,,,,,,20,R,ugm-3
14-01-2001,24:00,,,,,,,,,,32,R,ugm-3
15-01-2001,01:00,,,,,,,,,,16,R,ugm-3
15-01-2001,02:00,,,,,,,,,,10,R,ugm-3
15-01-2001,03:00,,,,,,,,,,16,R,ugm-3
15-01-2001,04:00,,,,,,,,,,4,R,ugm-3
15-01-2001,05:00,,,,,,,,,,0,R,ugm-3
15-01-2001,06:00,,,,,,,,,,8,R,ugm-3
15-01-2001,07:00,,,,,,,,,,12,R,ugm-3
15-01-2001,08:00,,,,,,,,,,8,R,ugm-3
15-01-2001,09:00,,,,,,,,,,6,R,ugm-3
15-01-2001,10:00,,,,,,,,,,,,
15-01-2001,11:00,,,,,,,,,,,,
15-01-2001,12:00,,,,,,,,,,8,R,ugm-3
15-01-2001,13:00,,,,,,,,,,12,R,ugm-3
15-01-2001,14:00,,,,,,,,,,10,R,ugm-3
15-01-2001,15:00,,,,,,,,,,8,R,ugm-3
15-01-2001,16:00,,,,,,,,,,2,R,ugm-3
15-01-2001,17:00,,,,,,,,,,2,R,ugm-3
15-01-2001,18:00,,,,,,,,,,2,R,ugm-3
15-01-2001,19:00,,,,,,,,,,2,R,ugm-3
15-01-2001,20:00,,,,,,,,,,2,R,ugm-3
15-01-2001,21:00,,,,,,,,,,2,R,ugm-3
15-01-2001,22:00,,,,,,,,,,2,R,ugm-3
15-01-2001,23:00,,,,,,,,,,0,R,ugm-3
15-01-2001,24:00,,,,,,,,,,0,R,ugm-3
16-01-2001,01:00,,,,,,,,,,8,R,ugm-3
16-01-2001,02:00,,,,,,,,,,24,R,ugm-3
16-01-2001,03:00,,,,,,,,,,0,R,ugm-3
16-01-2001,04:00,,,,,,,,,,0,R,ugm-3
16-01-2001,05:00,,,,,,,,,,0,R,ugm-3
16-01-2001,06:00,,,,,,,,,,0,R,ugm-3
16-01-2001,07:00,,,,,,,,,,0,R,ugm-3
16-01-2001,08:00,,,,,,,,,,2,R,ugm-3
16-01-2001,09:00,,,,,,,,,,2,R,ugm-3
16-01-2001,10:00,,,,,,,,,,2,R,ugm-3
16-01-2001,11:00,,,,,,,,,,2,R,ugm-3
16-01-2001,12:00,,,,,,,,,,2,R,ugm-3
16-01-2001,13:00,,,,,,,,,,6,R,ugm-3
16-01-2001,14:00,,,,,,,,,,6,R,ugm-3
16-01-2001,15:00,,,,,,,,,,4,R,ugm-3
16-01-2001,16:00,,,,,,,,,,2,R,ugm-3
16-01-2001,17:00,,,,,,,,,,2,R,ugm-3
16-01-2001,18:00,,,,,,,,,,0,R,ugm-3
16-01-2001,19:00,,,,,,,,,,0,R,ugm-3
16-01-2001,20:00,,,,,,,,,,0,R,ugm-3
16-01-2001,21:00,,,,,,,,,,2,R,ugm-3
16-01-2001,22:00,,,,,,,,,,2,R,ugm-3
16-01-2001,23:00,,,,,,,,,,0,R,ugm-3
16-01-2001,24:00,,,,,,,,,,0,R,ugm-3
17-01-2001,01:00,,,,,,,,,,0,R,ugm-3
17-01-2001,02:00,,,,,,,,,,0,R,ugm-3
17-01-2001,03:00,,,,,,,,,,0,R,ugm-3
17-01-2001,04:00,,,,,,,,,,0,R,ugm-3
17-01-2001,05:00,,,,,,,,,,0,R,ugm-3
17-01-2001,06:00,,,,,,,,,,0,R,ugm-3
17-01-2001,07:00,,,,,,,,,,0,R,ugm-3
17-01-2001,08:00,,,,,,,,,,2,R,ugm-3
17-01-2001,09:00,,,,,,,,,,4,R,ugm-3
17-01-2001,10:00,,,,,,,,,,2,R,ugm-3
17-01-2001,11:00,,,,,,,,,,2,R,ugm-3
17-01-2001,12:00,,,,,,,,,,0,R,ugm-3
17-01-2001,13:00,,,,,,,,,,2,R,ugm-3
17-01-2001,14:00,,,,,,,,,,2,R,ugm-3
17-01-2001,15:00,,,,,,,,,,2,R,ugm-3
17-01-2001,16:00,,,,,,,,,,0,R,ugm-3
17-01-2001,17:00,,,,,,,,,,0,R,ugm-3
17-01-2001,18:00,,,,,,,,,,2,R,ugm-3
17-01-2001,19:00,,,,,,,,,,4,R,ugm-3
17-01-2001,20:00,,,,,,,,,,4,R,ugm-3
17-01-2001,21:00,,,,,,,,,,4,R,ugm-3
17-01-2001,22:00,,,,,,,,,,2,R,ugm-3
17-01-2001,23:00,,,,,,,,,,2,R,ugm-3
17-01-2001,24:00,,,,,,,,,,2,R,ugm-3
18-01-2001,01:00,,,,,,,,,,0,R,ugm-3
18-01-2001,02:00,,,,,,,,,,0,R,ugm-3
18-01-2001,03:00,,,,,,,,,,0,R,ugm-3
18-01-2001,04:00,,,,,,,,,,0,R,ugm-3
18-01-2001,05:00,,,,,,,,,,0,R,ugm-3
18-01-2001,06:00,,,,,,,,,,0,R,ugm-3
18-01-2001,07:00,,,,,,,,,,0,R,ugm-3
18-01-2001,08:00,,,,,,,,,,0,R,ugm-3
18-01-2001,09:00,,,,,,,,,,0,R,ugm-3
18-01-2001,10:00,,,,,,,,,,0,R,ugm-3
18-01-2001,11:00,,,,,,,,,,0,R,ugm-3
18-01-2001,12:00,,,,,,,,,,0,R,ugm-3
18-01-2001,13:00,,,,,,,,,,2,R,ugm-3
18-01-2001,14:00,,,,,,,,,,2,R,ugm-3
18-01-2001,15:00,,,,,,,,,,0,R,ugm-3
18-01-2001,16:00,,,,,,,,,,2,R,ugm-3
18-01-2001,17:00,,,,,,,,,,2,R,ugm-3
18-01-2001,18:00,,,,,,,,,,2,R,ugm-3
18-01-2001,19:00,,,,,,,,,,2,R,ugm-3
18-01-2001,20:00,,,,,,,,,,4,R,ugm-3
18-01-2001,21:00,,,,,,,,,,2,R,ugm-3
18-01-2001,22:00,,,,,,,,,,2,R,ugm-3
18-01-2001,23:00,,,,,,,,,,2,R,ugm-3
18-01-2001,24:00,,,,,,,,,,2,R,ugm-3
19-01-2001,01:00,,,,,,,,,,2,R,ugm-3
19-01-2001,02:00,,,,,,,,,,0,R,ugm-3
19-01-2001,03:00,,,,,,,,,,0,R,ugm-3
19-01-2001,04:00,,,,,,,,,,0,R,ugm-3
19-01-2001,05:00,,,,,,,,,,0,R,ugm-3
19-01-2001,06:00,,,,,,,,,,0,R,ugm-3
19-01-2001,07:00,,,,,,,,,,0,R,ugm-3
19-01-2001,08:00,,,,,,,,,,0,R,ugm-3
19-01-2001,09:00,,,,,,,,,,2,R,ugm-3
19-01-2001,10:00,,,,,,,,,,0,R,ugm-3
19-01-2001,11:00,,,,,,,,,,0,R,ugm-3
19-01-2001,12:00,,,,,,,,,,0,R,ugm-3
19-01-2001,13:00,,,,,,,,,,2,R,ugm-3
19-01-2001,14:00,,,,,,,,,,0,R,ugm-3
19-01-2001,15:00,,,,,,,,,,2,R,ugm-3
19-01-2001,16:00,,,,,,,,,,0,R,ugm-3
19-01-2001,17:00,,,,,,,,,,0,R,ugm-3
19-01-2001,18:00,,,,,,,,,,0,R,ugm-3
19-01-2001,19:00,,,,,,,,,,0,R,ugm-3
19-01-2001,20:00,,,,,,,,,,0,R,ugm-3
19-01-2001,21:00,,,,,,,,,,0,R,ugm-3
19-01-2001,22:00,,,,,,,,,,0,R,ugm-3
19-01-2001,23:00,,,,,,,,,,0,R,ugm-3
19-01-2001,24:00,,,,,,,,,,0,R,ugm-3
20-01-2001,01:00,,,,,,,,,,0,R,ugm-3
20-01-2001,02:00,,,,,,,,,,0,R,ugm-3
20-01-2001,03:00,,,,,,,,,,0,R,ugm-3
20-01-2001,04:00,,,,,,,,,,0,R,ugm-3
20-01-2001,05:00,,,,,,,,,,0,R,ugm-3
20-01-2001,06:00,,,,,,,,,,0,R,ugm-3
20-01-2001,07:00,,,,,,,,,,0,R,ugm-3
20-01-2001,08:00,,,,,,,,,,0,R,ugm-3
20-01-2001,09:00,,,,,,,,,,0,R,ugm-3
20-01-2001,10:00,,,,,,,,,,0,R,ugm-3
20-01-2001,11:00,,,,,,,,,,0,R,ugm-3
20-01-2001,12:00,,,,,,,,,,2,R,ugm-3
20-01-2001,13:00,,,,,,,,,,4,R,ugm-3
20-01-2001,14:00,,,,,,,,,,2,R,ugm-3
20-01-2001,15:00,,,,,,,,,,2,R,ugm-3
20-01-2001,16:00,,,,,,,,,,0,R,ugm-3
20-01-2001,17:00,,,,,,,,,,0,R,ugm-3
20-01-2001,18:00,,,,,,,,,,2,R,ugm-3
20-01-2001,19:00,,,,,,,,,,2,R,ugm-3
20-01-2001,20:00,,,,,,,,,,2,R,ugm-3
20-01-2001,21:00,,,,,,,,,,2,R,ugm-3
20-01-2001,22:00,,,,,,,,,,2,R,ugm-3
20-01-2001,23:00,,,,,,,,,,2,R,ugm-3
20-01-2001,24:00,,,,,,,,,,0,R,ugm-3
21-01-2001,01:00,,,,,,,,,,2,R,ugm-3
21-01-2001,02:00,,,,,,,,,,2,R,ugm-3
21-01-2001,03:00,,,,,,,,,,2,R,ugm-3
21-01-2001,04:00,,,,,,,,,,2,R,ugm-3
21-01-2001,05:00,,,,,,,,,,4,R,ugm-3
21-01-2001,06:00,,,,,,,,,,6,R,ugm-3
21-01-2001,07:00,,,,,,,,,,14,R,ugm-3
21-01-2001,08:00,,,,,,,,,,20,R,ugm-3
21-01-2001,09:00,,,,,,,,,,28,R,ugm-3
21-01-2001,10:00,,,,,,,,,,36,R,ugm-3
21-01-2001,11:00,,,,,,,,,,32,R,ugm-3
21-01-2001,12:00,,,,,,,,,,22,R,ugm-3
21-01-2001,13:00,,,,,,,,,,22,R,ugm-3
21-01-2001,14:00,,,,,,,,,,22,R,ugm-3
21-01-2001,15:00,,,,,,,,,,14,R,ugm-3
21-01-2001,16:00,,,,,,,,,,2,R,ugm-3
21-01-2001,17:00,,,,,,,,,,0,R,ugm-3
21-01-2001,18:00,,,,,,,,,,2,R,ugm-3
21-01-2001,19:00,,,,,,,,,,2,R,ugm-3
21-01-2001,20:00,,,,,,,,,,2,R,ugm-3
21-01-2001,21:00,,,,,,,,,,2,R,ugm-3
21-01-2001,22:00,,,,,,,,,,2,R,ugm-3
21-01-2001,23:00,,,,,,,,,,2,R,ugm-3
21-01-2001,24:00,,,,,,,,,,2,R,ugm-3
22-01-2001,01:00,,,,,,,,,,2,R,ugm-3
22-01-2001,02:00,,,,,,,,,,0,R,ugm-3
22-01-2001,03:00,,,,,,,,,,2,R,ugm-3
22-01-2001,04:00,,,,,,,,,,2,R,ugm-3
22-01-2001,05:00,,,,,,,,,,2,R,ugm-3
22-01-2001,06:00,,,,,,,,,,2,R,ugm-3
22-01-2001,07:00,,,,,,,,,,12,R,ugm-3
22-01-2001,08:00,,,,,,,,,,4,R,ugm-3
22-01-2001,09:00,,,,,,,,,,4,R,ugm-3
22-01-2001,10:00,,,,,,,,,,8,R,ugm-3
22-01-2001,11:00,,,,,,,,,,20,R,ugm-3
22-01-2001,12:00,,,,,,,,,,30,R,ugm-3
22-01-2001,13:00,,,,,,,,,,34,R,ugm-3
22-01-2001,14:00,,,,,,,,,,38,R,ugm-3
22-01-2001,15:00,,,,,,,,,,30,R,ugm-3
22-01-2001,16:00,,,,,,,,,,26,R,ugm-3
22-01-2001,17:00,,,,,,,,,,24,R,ugm-3
22-01-2001,18:00,,,,,,,,,,24,R,ugm-3
22-01-2001,19:00,,,,,,,,,,28,R,ugm-3
22-01-2001,20:00,,,,,,,,,,30,R,ugm-3
22-01-2001,21:00,,,,,,,,,,44,R,ugm-3
22-01-2001,22:00,,,,,,,,,,54,R,ugm-3
22-01-2001,23:00,,,,,,,,,,48,R,ugm-3
22-01-2001,24:00,,,,,,,,,,52,R,ugm-3
23-01-2001,01:00,,,,,,,,,,60,R,ugm-3
23-01-2001,02:00,,,,,,,,,,60,R,ugm-3
23-01-2001,03:00,,,,,,,,,,64,R,ugm-3
23-01-2001,04:00,,,,,,,,,,64,R,ugm-3
23-01-2001,05:00,,,,,,,,,,56,R,ugm-3
23-01-2001,06:00,,,,,,,,,,48,R,ugm-3
23-01-2001,07:00,,,,,,,,,,46,R,ugm-3
23-01-2001,08:00,,,,,,,,,,32,R,ugm-3
23-01-2001,09:00,,,,,,,,,,38,R,ugm-3
23-01-2001,10:00,,,,,,,,,,34,R,ugm-3
23-01-2001,11:00,,,,,,,,,,42,R,ugm-3
23-01-2001,12:00,,,,,,,,,,48,R,ugm-3
23-01-2001,13:00,,,,,,,,,,52,R,ugm-3
23-01-2001,14:00,,,,,,,,,,50,R,ugm-3
23-01-2001,15:00,,,,,,,,,,40,R,ugm-3
23-01-2001,16:00,,,,,,,,,,40,R,ugm-3
23-01-2001,17:00,,,,,,,,,,38,R,ugm-3
23-01-2001,18:00,,,,,,,,,,38,R,ugm-3
23-01-2001,19:00,,,,,,,,,,42,R,ugm-3
23-01-2001,20:00,,,,,,,,,,46,R,ugm-3
23-01-2001,21:00,,,,,,,,,,52,R,ugm-3
23-01-2001,22:00,,,,,,,,,,60,R,ugm-3
23-01-2001,23:00,,,,,,,,,,58,R,ugm-3
23-01-2001,24:00,,,,,,,,,,64,R,ugm-3
24-01-2001,01:00,,,,,,,,,,72,R,ugm-3
24-01-2001,02:00,,,,,,,,,,74,R,ugm-3
24-01-2001,03:00,,,,,,,,,,78,R,ugm-3
24-01-2001,04:00,,,,,,,,,,74,R,ugm-3
24-01-2001,05:00,,,,,,,,,,70,R,ugm-3
24-01-2001,06:00,,,,,,,,,,66,R,ugm-3
24-01-2001,07:00,,,,,,,,,,54,R,ugm-3
24-01-2001,08:00,,,,,,,,,,46,R,ugm-3
24-01-2001,09:00,,,,,,,,,,40,R,ugm-3
24-01-2001,10:00,,,,,,,,,,44,R,ugm-3
24-01-2001,11:00,,,,,,,,,,56,R,ugm-3
24-01-2001,12:00,,,,,,,,,,60,R,ugm-3
24-01-2001,13:00,,,,,,,,,,62,R,ugm-3
24-01-2001,14:00,9,R,ugm-3,21,R,ugm-3,34,R,ugm-3,62,R,ugm-3
24-01-2001,15:00,13,R,ugm-3,27,R,ugm-3,46,R,ugm-3,58,R,ugm-3
24-01-2001,16:00,13,R,ugm-3,32,R,ugm-3,52,R,ugm-3,56,R,ugm-3
24-01-2001,17:00,15,R,ugm-3,50,R,ugm-3,73,R,ugm-3,36,R,ugm-3
24-01-2001,18:00,15,R,ugm-3,52,R,ugm-3,74,R,ugm-3,34,R,ugm-3
24-01-2001,19:00,16,R,ugm-3,46,R,ugm-3,71,R,ugm-3,32,R,ugm-3
24-01-2001,20:00,9,R,ugm-3,34,R,ugm-3,48,R,ugm-3,44,R,ugm-3
24-01-2001,21:00,6,R,ugm-3,23,R,ugm-3,32,R,ugm-3,58,R,ugm-3
24-01-2001,22:00,5,R,ugm-3,25,R,ugm-3,32,R,ugm-3,58,R,ugm-3
24-01-2001,23:00,11,R,ugm-3,32,R,ugm-3,50,R,ugm-3,44,R,ugm-3
24-01-2001,24:00,4,R,ugm-3,21,R,ugm-3,27,R,ugm-3,52,R,ugm-3
25-01-2001,01:00,3,R,ugm-3,11,R,ugm-3,15,R,ugm-3,62,R,ugm-3
25-01-2001,02:00,5,R,ugm-3,10,R,ugm-3,17,R,ugm-3,68,R,ugm-3
25-01-2001,03:00,3,R,ugm-3,13,R,ugm-3,17,R,ugm-3,70,R,ugm-3
25-01-2001,04:00,3,R,ugm-3,10,R,ugm-3,13,R,ugm-3,70,R,ugm-3
25-01-2001,05:00,6,R,ugm-3,15,R,ugm-3,25,R,ugm-3,62,R,ugm-3
25-01-2001,06:00,9,R,ugm-3,25,R,ugm-3,38,R,ugm-3,58,R,ugm-3
25-01-2001,07:00,10,R,ugm-3,34,R,ugm-3,50,R,ugm-3,48,R,ugm-3
25-01-2001,08:00,29,R,ugm-3,71,R,ugm-3,115,R,ugm-3,12,R,ugm-3
25-01-2001,09:00,36,R,ugm-3,71,R,ugm-3,126,R,ugm-3,,,
25-01-2001,10:00,,,,,,,,,,,,
25-01-2001,11:00,9,R,ugm-3,32,R,ugm-3,46,R,ugm-3,52,R,ugm-3
25-01-2001,12:00,25,R,ugm-3,50,R,ugm-3,88,R,ugm-3,38,R,ugm-3
25-01-2001,13:00,14,R,ugm-3,36,R,ugm-3,57,R,ugm-3,50,R,ugm-3
25-01-2001,14:00,13,R,ugm-3,38,R,ugm-3,57,R,ugm-3,46,R,ugm-3
25-01-2001,15:00,11,R,ugm-3,38,R,ugm-3,55,R,ugm-3,46,R,ugm-3
25-01-2001,16:00,16,R,ugm-3,48,R,ugm-3,73,R,ugm-3,34,R,ugm-3
25-01-2001,17:00,14,R,ugm-3,48,R,ugm-3,69,R,ugm-3,32,R,ugm-3
25-01-2001,18:00,14,R,ugm-3,55,R,ugm-3,76,R,ugm-3,24,R,ugm-3
25-01-2001,19:00,13,R,ugm-3,53,R,ugm-3,73,R,ugm-3,28,R,ugm-3
25-01-2001,20:00,18,R,ugm-3,52,R,ugm-3,78,R,ugm-3,28,R,ugm-3
25-01-2001,21:00,11,R,ugm-3,48,R,ugm-3,65,R,ugm-3,28,R,ugm-3
25-01-2001,22:00,5,R,ugm-3,34,R,ugm-3,42,R,ugm-3,44,R,ugm-3
25-01-2001,23:00,13,R,ugm-3,34,R,ugm-3,53,R,ugm-3,46,R,ugm-3
25-01-2001,24:00,3,R,ugm-3,23,R,ugm-3,27,R,ugm-3,52,R,ugm-3
26-01-2001,01:00,6,R,ugm-3,21,R,ugm-3,31,R,ugm-3,56,R,ugm-3
26-01-2001,02:00,8,R,ugm-3,19,R,ugm-3,31,R,ugm-3,60,R,ugm-3
26-01-2001,03:00,1,R,ugm-3,13,R,ugm-3,15,R,ugm-3,70,R,ugm-3
26-01-2001,04:00,6,R,ugm-3,13,R,ugm-3,23,R,ugm-3,66,R,ugm-3
26-01-2001,05:00,8,R,ugm-3,13,R,ugm-3,25,R,ugm-3,66,R,ugm-3
26-01-2001,06:00,3,R,ugm-3,15,R,ugm-3,19,R,ugm-3,60,R,ugm-3
26-01-2001,07:00,9,R,ugm-3,36,R,ugm-3,50,R,ugm-3,42,R,ugm-3
26-01-2001,08:00,21,R,ugm-3,52,R,ugm-3,84,R,ugm-3,30,R,ugm-3
26-01-2001,09:00,24,R,ugm-3,63,R,ugm-3,99,R,ugm-3,18,R,ugm-3
26-01-2001,10:00,24,R,ugm-3,52,R,ugm-3,88,R,ugm-3,30,R,ugm-3
26-01-2001,11:00,28,R,ugm-3,52,R,ugm-3,94,R,ugm-3,36,R,ugm-3
26-01-2001,12:00,14,R,ugm-3,36,R,ugm-3,57,R,ugm-3,48,R,ugm-3
26-01-2001,13:00,,,,,,,,,,,,
26-01-2001,14:00,,,,,,,,,,,,
26-01-2001,15:00,16,R,ugm-3,52,R,ugm-3,76,R,ugm-3,26,R,ugm-3
26-01-2001,16:00,11,R,ugm-3,50,R,ugm-3,67,R,ugm-3,26,R,ugm-3
26-01-2001,17:00,13,R,ugm-3,48,R,ugm-3,67,R,ugm-3,30,R,ugm-3